Miami, FL

6:53 AM EST on February 09, 2016 (GMT -0500)
JA Richmond West | | Change Station
CLOSE
Current Station
Personal Weather Station
Location: Miami, FL
Elevation: 7 ft
Nearby Weather Stations

Elev 7 ft 25.61 °N, 80.43 °W | Updated 16 seconds ago

Mostly Cloudy
Mostly Cloudy
60.6 °F
Feels Like 60.6 °F
N
8.1
Wind Variable Wind from WSW
Gusts 8.1 mph

Today
High -- | Low -- °F
--% Chance of Precip.
Yesterday
High -- | Low -- °F
Precip. -- in
Pressure 30.01 in
Visibility 10.0 miles
Clouds Scattered Clouds 4200 ft
Mostly Cloudy 6000 ft
Dew Point 51 °F
Humidity 71%
Rainfall 0.00 in
Snow Depth Not available.
7:01 AM 6:10 PM
New Moon, 1% visible
METAR KTMB 091053Z AUTO 30016G23KT 10SM SCT042 BKN060 16/12 A3002 RMK AO2 SLP163 T01610117 TSNO
Pressure 30.01 in
Visibility 10.0 miles
Clouds Scattered Clouds 4200 ft
Mostly Cloudy 6000 ft
Dew Point 51 °F
Humidity 71%
Rainfall 0.00 in
Snow Depth Not available.
7:01 AM 6:10 PM
New Moon, 1% visible
METAR KTMB 091053Z AUTO 30016G23KT 10SM SCT042 BKN060 16/12 A3002 RMK AO2 SLP163 T01610117 TSNO

10-Day Weather Forecast

Almanac

Astronomy

Feb. 09, 2016 Rise Set
Actual Time
Civil Twilight
Nautical Twilight
Astronomical Twilight
Moon
Length of Visible Light
Length of Day
Tomorrow will be .
, % of the Moon is Illuminated

Today's Extremes

State Highs State Lows

Community

WunderPhotos

Upload Photos

1,891,565 photos uploaded!

WunderBlog® & News

Nearby

Air Quality

  Air Quality AQ Index Pollutant
Not available.

Snow Depth

Station Depth Elevation

Earthquake Activity

City Distance Mag. Time & Date
Minimum magnitude displayed is 2.5.

Coastal Water Temperatures

Place Temperature

Stations

Nearby Weather Stations

Station Location Temp. Windchill Dew Point Humidity Wind Precip. Elev Updated Type
                   

Watches & Warnings

There are currently no watches in effect.